AAY75 KRNO-KLAS

Flight info

Callsign AAY75
Flight time 0h 59m
Altitude 35000
Route ALPYN1 YERIN TQILA COKTL4
Aircraft A320/M-SDE3FGHIRWY/LB1

Departure

Time 2026-05-07 19:09
Airport Reno Tahoe International Airport (KRNO)

Arrival

Time 2026-05-07 20:08
Airport Harry Reid International Airport (KLAS)
Time Latitude Longitude Altitude Speed Heading
2026-05-07 18:34 39.50651 -119.77323 4410 ft 0 kts
2026-05-07 18:57 39.50641 -119.77323 4410 ft 4 kts 20°
2026-05-07 18:57 39.50616 -119.77329 4410 ft 4 kts 18°
2026-05-07 18:57 39.50595 -119.77346 4411 ft 4 kts 62°
2026-05-07 18:58 39.50590 -119.77367 4411 ft 1 kts 90°
2026-05-07 18:58 39.50590 -119.77371 4411 ft 0 kts 90°
2026-05-07 19:00 39.50590 -119.77370 4411 ft 1 kts 90°
2026-05-07 19:00 39.50590 -119.77325 4411 ft 10 kts 91°
2026-05-07 19:00 39.50590 -119.77270 4411 ft 6 kts 90°
2026-05-07 19:00 39.50590 -119.77198 4411 ft 10 kts 90°
2026-05-07 19:01 39.50562 -119.77151 4410 ft 8 kts 179°
2026-05-07 19:01 39.50490 -119.77152 4408 ft 13 kts 179°
2026-05-07 19:01 39.50392 -119.77152 4410 ft 15 kts 180°
2026-05-07 19:01 39.50286 -119.77151 4412 ft 14 kts 180°
2026-05-07 19:02 39.50173 -119.77153 4410 ft 19 kts 180°
2026-05-07 19:02 39.50053 -119.77153 4408 ft 16 kts 180°
2026-05-07 19:02 39.49942 -119.77153 4410 ft 17 kts 179°
2026-05-07 19:02 39.49814 -119.77152 4409 ft 21 kts 180°
2026-05-07 19:03 39.49739 -119.77132 4407 ft 8 kts 118°
2026-05-07 19:03 39.49736 -119.77085 4408 ft 0 kts 90°
2026-05-07 19:03 39.49734 -119.77079 4408 ft 1 kts 106°
2026-05-07 19:03 39.49727 -119.77073 4408 ft 2 kts 146°
2026-05-07 19:04 39.49707 -119.77071 4408 ft 4 kts 177°
2026-05-07 19:04 39.49667 -119.77070 4409 ft 7 kts 179°
2026-05-07 19:04 39.49609 -119.77069 4409 ft 9 kts 180°
2026-05-07 19:04 39.49533 -119.77070 4410 ft 12 kts 180°
2026-05-07 19:05 39.49435 -119.77071 4409 ft 16 kts 180°
2026-05-07 19:05 39.49309 -119.77071 4408 ft 19 kts 179°
2026-05-07 19:05 39.49177 -119.77071 4408 ft 20 kts 180°
2026-05-07 19:05 39.49051 -119.77071 4406 ft 17 kts 180°
2026-05-07 19:06 39.48957 -119.77071 4405 ft 10 kts 179°
2026-05-07 19:06 39.48926 -119.76907 4404 ft 13 kts 90°
2026-05-07 19:06 39.48925 -119.76803 4404 ft 0 kts 91°
2026-05-07 19:07 39.48925 -119.76802 4404 ft 0 kts 91°
2026-05-07 19:07 39.48925 -119.76787 4405 ft 3 kts 91°
2026-05-07 19:07 39.48925 -119.76750 4405 ft 6 kts 90°
2026-05-07 19:07 39.48932 -119.76690 4405 ft 6 kts 48°
2026-05-07 19:08 39.48958 -119.76683 4405 ft 0 kts
2026-05-07 19:08 39.49056 -119.76684 4408 ft 44 kts 360°
2026-05-07 19:08 39.49612 -119.76682 4413 ft 112 kts
2026-05-07 19:08 39.50597 -119.76682 4410 ft 168 kts 355°
2026-05-07 19:09 39.51766 -119.76685 5116 ft 163 kts 355°
2026-05-07 19:09 39.52903 -119.76660 5799 ft 163 kts 359°
2026-05-07 19:09 39.54053 -119.76651 6185 ft 166 kts 357°
2026-05-07 19:09 39.55234 -119.76646 6492 ft 179 kts 357°
2026-05-07 19:10 39.56554 -119.76641 6668 ft 201 kts 357°
2026-05-07 19:10 39.58030 -119.76620 6799 ft 224 kts
2026-05-07 19:10 39.59555 -119.75852 6924 ft 254 kts 40°
2026-05-07 19:10 39.60491 -119.73852 7350 ft 270 kts 76°
2026-05-07 19:11 39.60695 -119.71414 8046 ft 275 kts 92°
2026-05-07 19:11 39.60609 -119.68912 8719 ft 280 kts 93°
2026-05-07 19:11 39.60515 -119.66421 8930 ft 279 kts 93°
2026-05-07 19:11 39.60410 -119.63893 9509 ft 282 kts 96°
2026-05-07 19:12 39.59823 -119.61497 10245 ft 283 kts 125°
2026-05-07 19:12 39.58415 -119.59589 10488 ft 304 kts 142°
2026-05-07 19:12 39.56663 -119.57878 10713 ft 327 kts 147°
2026-05-07 19:12 39.54714 -119.56180 11013 ft 345 kts 149°
2026-05-07 19:13 39.52681 -119.54462 11616 ft 353 kts 149°
2026-05-07 19:13 39.50614 -119.52693 12260 ft 360 kts 148°
2026-05-07 19:13 39.48527 -119.50861 12900 ft 365 kts 148°
2026-05-07 19:13 39.46426 -119.48976 13579 ft 369 kts 147°
2026-05-07 19:14 39.44319 -119.47057 14216 ft 372 kts 147°
2026-05-07 19:14 39.42195 -119.45112 14792 ft 377 kts 146°
2026-05-07 19:14 39.40049 -119.43136 15364 ft 381 kts 146°
2026-05-07 19:14 39.37878 -119.41140 15934 ft 384 kts 146°
2026-05-07 19:15 39.35686 -119.39135 16509 ft 388 kts 146°
2026-05-07 19:15 39.33466 -119.37113 17092 ft 392 kts 146°
2026-05-07 19:15 39.31223 -119.35077 17671 ft 395 kts 146°
2026-05-07 19:15 39.28963 -119.33026 18258 ft 399 kts 146°
2026-05-07 19:16 39.26710 -119.30979 18762 ft 403 kts 146°
2026-05-07 19:16 39.24381 -119.28861 19280 ft 406 kts 145°
2026-05-07 19:16 39.22245 -119.26537 19788 ft 409 kts 136°
2026-05-07 19:16 39.20203 -119.23956 20326 ft 412 kts 136°
2026-05-07 19:17 39.18147 -119.21366 20843 ft 415 kts 135°
2026-05-07 19:17 39.16073 -119.18758 21375 ft 418 kts 135°
2026-05-07 19:17 39.13985 -119.16141 21925 ft 420 kts 135°
2026-05-07 19:17 39.11884 -119.13515 22453 ft 422 kts 135°
2026-05-07 19:18 39.09767 -119.10873 22959 ft 425 kts 135°
2026-05-07 19:18 39.07640 -119.08219 23457 ft 428 kts 135°
2026-05-07 19:18 39.05498 -119.05548 23881 ft 430 kts 135°
2026-05-07 19:18 39.03340 -119.02857 24275 ft 432 kts 135°
2026-05-07 19:19 39.01173 -119.00153 24663 ft 435 kts 135°
2026-05-07 19:19 38.98995 -118.97440 25045 ft 437 kts 135°
2026-05-07 19:19 38.96806 -118.94723 25427 ft 439 kts 135°
2026-05-07 19:19 38.94579 -118.92004 25775 ft 442 kts 136°
2026-05-07 19:20 38.92324 -118.89292 26136 ft 445 kts 136°
2026-05-07 19:20 38.90055 -118.86582 26492 ft 447 kts 136°
2026-05-07 19:20 38.87769 -118.83862 26842 ft 449 kts 136°
2026-05-07 19:20 38.85504 -118.81164 27189 ft 451 kts 136°
2026-05-07 19:21 38.83200 -118.78417 27551 ft 453 kts 136°
2026-05-07 19:21 38.80889 -118.75651 27896 ft 455 kts 136°
2026-05-07 19:21 38.78570 -118.72869 28225 ft 457 kts 136°
2026-05-07 19:21 38.76246 -118.70079 28543 ft 459 kts 136°
2026-05-07 19:22 38.73906 -118.67274 28855 ft 461 kts 136°
2026-05-07 19:22 38.71551 -118.64459 29157 ft 464 kts 136°
2026-05-07 19:22 38.69188 -118.61636 29445 ft 466 kts 136°
2026-05-07 19:22 38.66815 -118.58806 29838 ft 468 kts 136°
2026-05-07 19:23 38.64425 -118.55967 30120 ft 470 kts 136°
2026-05-07 19:23 38.62022 -118.53120 30359 ft 472 kts 136°
2026-05-07 19:23 38.59612 -118.50263 30579 ft 473 kts 136°
2026-05-07 19:23 38.57196 -118.47396 30794 ft 474 kts 136°
2026-05-07 19:24 38.54777 -118.44527 31003 ft 475 kts 136°
2026-05-07 19:24 38.52353 -118.41650 31265 ft 475 kts 136°
2026-05-07 19:24 38.49937 -118.38783 31586 ft 473 kts 136°
2026-05-07 19:24 38.47521 -118.35921 31908 ft 472 kts 136°
2026-05-07 19:25 38.45116 -118.33076 32179 ft 472 kts 136°
2026-05-07 19:25 38.42705 -118.30230 32452 ft 472 kts 136°
2026-05-07 19:25 38.40296 -118.27394 32738 ft 471 kts 136°
2026-05-07 19:25 38.37924 -118.24602 33031 ft 469 kts 136°
2026-05-07 19:26 38.35527 -118.21779 33341 ft 468 kts 136°
2026-05-07 19:26 38.33135 -118.18968 33672 ft 467 kts 136°
2026-05-07 19:26 38.30751 -118.16172 33982 ft 466 kts 136°
2026-05-07 19:26 38.28367 -118.13378 34248 ft 465 kts 136°
2026-05-07 19:27 38.25993 -118.10594 34503 ft 464 kts 136°
2026-05-07 19:27 38.23621 -118.07809 34759 ft 463 kts 136°
2026-05-07 19:27 38.21248 -118.05030 34976 ft 463 kts 136°
2026-05-07 19:27 38.18885 -118.02271 35034 ft 460 kts 136°
2026-05-07 19:28 38.14180 -117.96782 35028 ft 458 kts 136°
2026-05-07 19:28 38.09491 -117.91298 35026 ft 457 kts 136°
2026-05-07 19:29 38.04813 -117.85846 35026 ft 456 kts 136°
2026-05-07 19:29 38.00166 -117.80448 35026 ft 455 kts 136°
2026-05-07 19:30 37.95496 -117.75027 35021 ft 455 kts 136°
2026-05-07 19:30 37.90816 -117.69618 35022 ft 455 kts 136°
2026-05-07 19:31 37.86132 -117.64219 35021 ft 455 kts 136°
2026-05-07 19:31 37.81460 -117.58836 35024 ft 454 kts 136°
2026-05-07 19:32 37.76789 -117.53451 35022 ft 454 kts 136°
2026-05-07 19:32 37.72124 -117.48080 35030 ft 454 kts 136°
2026-05-07 19:33 37.67444 -117.42719 35033 ft 454 kts 136°
2026-05-07 19:33 37.62760 -117.37376 35029 ft 454 kts 136°
2026-05-07 19:34 37.58078 -117.32025 35026 ft 454 kts 136°
2026-05-07 19:34 37.55719 -117.29331 34856 ft 460 kts 136°
2026-05-07 19:34 37.53347 -117.26628 34503 ft 459 kts 136°
2026-05-07 19:35 37.51013 -117.23972 33885 ft 458 kts 136°
2026-05-07 19:35 37.48659 -117.21295 33279 ft 454 kts 136°
2026-05-07 19:35 37.46187 -117.18841 32798 ft 451 kts 144°
2026-05-07 19:35 37.43603 -117.16607 32625 ft 451 kts 144°
2026-05-07 19:36 37.41022 -117.14369 32324 ft 450 kts 143°
2026-05-07 19:36 37.38445 -117.12132 32048 ft 449 kts 143°
2026-05-07 19:36 37.35877 -117.09897 31770 ft 448 kts 143°
2026-05-07 19:36 37.33323 -117.07673 31499 ft 446 kts 143°
2026-05-07 19:37 37.30775 -117.05458 31227 ft 444 kts 143°
2026-05-07 19:37 37.28238 -117.03254 30954 ft 443 kts 143°
2026-05-07 19:37 37.25708 -117.01058 30683 ft 441 kts 143°
2026-05-07 19:37 37.23185 -116.98872 30411 ft 439 kts 143°
2026-05-07 19:38 37.20672 -116.96693 30146 ft 437 kts 143°
2026-05-07 19:38 37.18173 -116.94528 29865 ft 436 kts 143°
2026-05-07 19:38 37.15684 -116.92379 29583 ft 434 kts 143°
2026-05-07 19:38 37.13198 -116.90239 29317 ft 433 kts 143°
2026-05-07 19:39 37.10722 -116.88111 29057 ft 431 kts 143°
2026-05-07 19:39 37.08254 -116.85992 28800 ft 430 kts 143°
2026-05-07 19:39 37.05825 -116.83901 28533 ft 428 kts 143°
2026-05-07 19:39 37.04170 -116.82479 28364 ft 427 kts 143°
2026-05-07 19:40 37.00934 -116.79700 28010 ft 424 kts 143°
2026-05-07 19:40 36.98508 -116.77617 27745 ft 422 kts 143°
2026-05-07 19:40 36.96087 -116.75537 27495 ft 421 kts 143°
2026-05-07 19:40 36.93679 -116.73470 27250 ft 419 kts 143°
2026-05-07 19:41 36.91280 -116.71408 26983 ft 418 kts 143°
2026-05-07 19:41 36.89688 -116.70041 26812 ft 417 kts 143°
2026-05-07 19:41 36.87300 -116.67995 26553 ft 416 kts 143°
2026-05-07 19:41 36.84916 -116.65956 26299 ft 414 kts 143°
2026-05-07 19:42 36.82543 -116.63932 26041 ft 412 kts 144°
2026-05-07 19:42 36.80177 -116.61918 25790 ft 411 kts 143°
2026-05-07 19:42 36.77824 -116.59912 25542 ft 409 kts 143°
2026-05-07 19:42 36.75469 -116.57903 25290 ft 408 kts 143°
2026-05-07 19:43 36.73131 -116.55910 25042 ft 407 kts 143°
2026-05-07 19:43 36.70791 -116.53919 24790 ft 406 kts 144°
2026-05-07 19:43 36.68458 -116.51937 24545 ft 404 kts 143°
2026-05-07 19:43 36.66151 -116.49957 24296 ft 402 kts 141°
2026-05-07 19:44 36.64079 -116.47650 24051 ft 398 kts 130°
2026-05-07 19:44 36.62258 -116.45063 23811 ft 396 kts 129°
2026-05-07 19:44 36.60446 -116.42486 23575 ft 395 kts 129°
2026-05-07 19:44 36.58657 -116.39955 23299 ft 394 kts 129°
2026-05-07 19:45 36.56843 -116.37399 23067 ft 393 kts 129°
2026-05-07 19:45 36.55038 -116.34862 22826 ft 391 kts 129°
2026-05-07 19:45 36.53240 -116.32332 22580 ft 390 kts 129°
2026-05-07 19:45 36.51455 -116.29819 22346 ft 387 kts 129°
2026-05-07 19:46 36.49675 -116.27311 22112 ft 385 kts 129°
2026-05-07 19:46 36.47903 -116.24813 21888 ft 384 kts 129°
2026-05-07 19:46 36.46140 -116.22329 21646 ft 383 kts 129°
2026-05-07 19:46 36.44378 -116.19850 21414 ft 382 kts 129°
2026-05-07 19:47 36.42619 -116.17382 21182 ft 381 kts 129°
2026-05-07 19:47 36.40863 -116.14921 20949 ft 379 kts 129°
2026-05-07 19:47 36.39118 -116.12476 20737 ft 378 kts 129°
2026-05-07 19:47 36.37377 -116.10038 20505 ft 377 kts 129°
2026-05-07 19:48 36.35646 -116.07612 20277 ft 375 kts 129°
2026-05-07 19:48 36.33923 -116.05200 20050 ft 372 kts 129°
2026-05-07 19:48 36.32206 -116.02799 19822 ft 371 kts 129°
2026-05-07 19:48 36.30496 -116.00409 19622 ft 369 kts 129°
2026-05-07 19:49 36.28794 -115.98029 19399 ft 368 kts 129°
2026-05-07 19:49 36.27098 -115.95663 19180 ft 364 kts 129°
2026-05-07 19:49 36.25464 -115.93385 19049 ft 353 kts 129°
2026-05-07 19:49 36.23861 -115.91063 18738 ft 348 kts 127°
2026-05-07 19:50 36.22351 -115.88717 18347 ft 348 kts 125°
2026-05-07 19:50 36.20901 -115.86383 17963 ft 345 kts 124°
2026-05-07 19:50 36.19458 -115.84035 17622 ft 341 kts 124°
2026-05-07 19:50 36.18025 -115.81709 17278 ft 338 kts 125°
2026-05-07 19:51 36.16598 -115.79413 16937 ft 334 kts 125°
2026-05-07 19:51 36.15181 -115.77150 16603 ft 332 kts 125°
2026-05-07 19:51 36.13892 -115.74806 16282 ft 327 kts 115°
2026-05-07 19:51 36.13004 -115.72240 15961 ft 323 kts 108°
2026-05-07 19:52 36.12214 -115.69648 15629 ft 322 kts 108°
2026-05-07 19:52 36.11420 -115.67065 15311 ft 321 kts 108°
2026-05-07 19:52 36.10626 -115.64491 14980 ft 320 kts 108°
2026-05-07 19:52 36.09835 -115.61930 14669 ft 318 kts 109°
2026-05-07 19:53 36.09049 -115.59385 14351 ft 316 kts 109°
2026-05-07 19:53 36.08265 -115.56849 14028 ft 315 kts 109°
2026-05-07 19:53 36.07485 -115.54328 13691 ft 313 kts 109°
2026-05-07 19:53 36.06707 -115.51819 13365 ft 312 kts 109°
2026-05-07 19:54 36.05929 -115.49318 13054 ft 311 kts 109°
2026-05-07 19:54 36.05156 -115.46837 12733 ft 309 kts 109°
2026-05-07 19:54 36.04388 -115.44363 12426 ft 308 kts 109°
2026-05-07 19:54 36.03622 -115.41895 12113 ft 307 kts 109°
2026-05-07 19:55 36.02867 -115.39458 11813 ft 307 kts 109°
2026-05-07 19:55 36.02108 -115.36998 11508 ft 306 kts 109°
2026-05-07 19:55 36.01591 -115.34464 11194 ft 303 kts 95°
2026-05-07 19:55 36.01453 -115.31873 10892 ft 302 kts 91°
2026-05-07 19:56 36.01334 -115.29290 10602 ft 301 kts 91°
2026-05-07 19:56 36.01210 -115.26714 10315 ft 300 kts 91°
2026-05-07 19:56 36.01080 -115.24142 10013 ft 300 kts 91°
2026-05-07 19:56 36.00946 -115.21575 9690 ft 298 kts 91°
2026-05-07 19:57 36.00815 -115.19029 9451 ft 293 kts 91°
2026-05-07 19:57 36.00690 -115.16570 9338 ft 282 kts 91°
2026-05-07 19:57 36.00568 -115.14187 9126 ft 275 kts 91°
2026-05-07 19:57 36.00449 -115.11844 8812 ft 272 kts 91°
2026-05-07 19:58 36.00334 -115.09519 8486 ft 270 kts 91°
2026-05-07 19:58 36.00218 -115.07209 8152 ft 269 kts 92°
2026-05-07 19:58 36.00104 -115.04948 7982 ft 260 kts 92°
2026-05-07 19:58 35.99999 -115.02737 7708 ft 256 kts 91°
2026-05-07 19:59 35.99920 -115.00553 7474 ft 251 kts 91°
2026-05-07 19:59 35.99848 -114.98428 7188 ft 245 kts 91°
2026-05-07 19:59 35.99780 -114.96359 6899 ft 243 kts 91°
2026-05-07 19:59 35.99711 -114.94281 6585 ft 242 kts 91°
2026-05-07 20:00 35.99643 -114.92208 6250 ft 241 kts 90°
2026-05-07 20:00 35.99580 -114.90151 5999 ft 238 kts 91°
2026-05-07 20:00 35.99529 -114.88105 5961 ft 239 kts 89°
2026-05-07 20:00 35.99893 -114.86136 5962 ft 236 kts 58°
2026-05-07 20:01 36.01025 -114.84723 5964 ft 233 kts 26°
2026-05-07 20:01 36.02575 -114.84216 5955 ft 232 kts
2026-05-07 20:01 36.04191 -114.84102 5953 ft 233 kts
2026-05-07 20:01 36.05815 -114.84045 5951 ft 234 kts
2026-05-07 20:02 36.07437 -114.84005 5942 ft 233 kts 357°
2026-05-07 20:02 36.08996 -114.84470 5936 ft 233 kts 331°
2026-05-07 20:02 36.10207 -114.85764 5938 ft 231 kts 304°
2026-05-07 20:02 36.10974 -114.87447 5933 ft 218 kts 299°
2026-05-07 20:03 36.11674 -114.89060 5921 ft 210 kts 298°
2026-05-07 20:03 36.12364 -114.90651 5932 ft 209 kts 299°
2026-05-07 20:03 36.13051 -114.92238 5931 ft 209 kts 297°
2026-05-07 20:03 36.13523 -114.93945 5913 ft 212 kts 281°
2026-05-07 20:04 36.13670 -114.95779 5602 ft 215 kts 275°
2026-05-07 20:04 36.13781 -114.97621 5358 ft 213 kts 275°
2026-05-07 20:04 36.13884 -114.99423 5089 ft 207 kts 275°
2026-05-07 20:04 36.13971 -115.01179 4823 ft 202 kts 274°
2026-05-07 20:05 36.14054 -115.02911 4564 ft 202 kts 273°
2026-05-07 20:05 36.14135 -115.04640 4315 ft 201 kts 273°
2026-05-07 20:05 36.14218 -115.06358 4093 ft 198 kts 273°
2026-05-07 20:05 36.14241 -115.08032 3852 ft 190 kts 269°
2026-05-07 20:06 36.14220 -115.09603 3621 ft 176 kts 268°
2026-05-07 20:06 36.14154 -115.11080 3423 ft 169 kts 258°
2026-05-07 20:06 36.13894 -115.12460 3190 ft 164 kts 245°
2026-05-07 20:06 36.13241 -115.13588 2961 ft 160 kts 219°
2026-05-07 20:07 36.12299 -115.14304 2704 ft 158 kts 204°
2026-05-07 20:07 36.11306 -115.14876 2426 ft 156 kts 203°
2026-05-07 20:07 36.10321 -115.15437 2216 ft 155 kts 203°
2026-05-07 20:07 36.09356 -115.15993 2110 ft 149 kts 203°
2026-05-07 20:08 36.08592 -115.16429 2126 ft 81 kts 205°
2026-05-07 20:08 36.08277 -115.16611 2136 ft 23 kts 204°
2026-05-07 20:08 36.08181 -115.16584 2140 ft 12 kts 116°
2026-05-07 20:08 36.08162 -115.16506 2139 ft 10 kts 92°
2026-05-07 20:09 36.08162 -115.16458 2139 ft 0 kts 88°
2026-05-07 20:10 36.08164 -115.16400 2138 ft 14 kts 91°
2026-05-07 20:10 36.08162 -115.16269 2136 ft 17 kts 91°
2026-05-07 20:10 36.08162 -115.16135 2135 ft 16 kts 90°
2026-05-07 20:11 36.08162 -115.15988 2133 ft 17 kts 90°
2026-05-07 20:11 36.08163 -115.15855 2133 ft 12 kts 89°
2026-05-07 20:11 36.08164 -115.15741 2130 ft 15 kts 90°
2026-05-07 20:11 36.08164 -115.15597 2121 ft 10 kts 87°
2026-05-07 20:12 36.08217 -115.15536 2113 ft 11 kts 356°
2026-05-07 20:12 36.08285 -115.15569 2112 ft 10 kts 335°
2026-05-07 20:12 36.08346 -115.15604 2113 ft 13 kts 335°
2026-05-07 20:12 36.08453 -115.15666 2115 ft 17 kts 335°
2026-05-07 20:13 36.08542 -115.15717 2117 ft 12 kts 335°
2026-05-07 20:13 36.08608 -115.15755 2120 ft 9 kts 335°
2026-05-07 20:13 36.08665 -115.15787 2117 ft 9 kts 339°
2026-05-07 20:13 36.08725 -115.15782 2115 ft 9 kts 23°
2026-05-07 20:14 36.08761 -115.15723 2114 ft 9 kts 85°
2026-05-07 20:14 36.08762 -115.15646 2113 ft 9 kts 90°
2026-05-07 20:14 36.08762 -115.15563 2110 ft 11 kts 91°
2026-05-07 20:14 36.08717 -115.15470 2106 ft 12 kts 127°
2026-05-07 20:15 36.08691 -115.15408 2106 ft 7 kts 116°
2026-05-07 20:15 36.08680 -115.15381 2105 ft 2 kts 116°
2026-05-07 20:15 36.08678 -115.15376 2105 ft 0 kts 116°